Location: Casco Volunteer Fire Department
(44.5576°N, 87.6146°W)
Time: 04:26:13
(UTC+00:00)

Cosmos 1707 Rocket - Pass Details

Date: 22 January 2026
Orbit: 598 x 624 km, 82.5° (Epoch: 7 February)

Event Time Altitude Azimuth Distance (km) Brightness Sun altitude
Exits shadow 12:07:57 - 331° (NNW) 2,043 5.8 -12.6°
Reaches altitude 10° 12:08:11 10° 329° (NNW) 1,960 5.7 -12.6°
Maximum altitude 12:11:54 28° 270° (W) 1,138 4.4 -11.9°
Drops below altitude 10° 12:15:37 10° 211° (SSW) 1,959 6.0 -11.3°
Sets 12:18:03 0° 200° (SSW) 2,863 6.9 -10.9°
